FENGYUN 1C DEB, 30647

Orbit data source: Space-Track

FENGYUN 1C DEB, 30647 is space debris in SSO originally from a launch on Mon, 10 May 1999 UTC launched from the Taiyaun Space Center, China (TSC). Fengyun 1C debris stems from the Chinese weather satellite Fengyun-1C, which was intentionally destroyed by a Chinese anti-satellite missile in 2007. This event dramatically increased the amount of space debris, with thousands of trackable fragments posing hazards to satellites and human spaceflight. The Fengyun 1C debris cloud has become a focal point in discussions about space sustainability and the need for international regulations to prevent the creation of new debris.

Loading next visibility...
Identifier
30647, 1999-025APE
Orbit
SSO
Country
Flag of CNCN / PRC
Related business
Manufacturer
Unknown
Mission
Spacecraft
Bus & Motor
Unknown
Mass
Unknown
Launch date (UTC)
1999-05-10 (27 years ago)
Launch vehicle
Unknown
Launch site
Taiyaun Space Center, China (TSC)
Object type
Payload
Rocket body
Debris
Shape & HBR
Unknown shape, 0.1 m
Radar Cross Section
Small (<0.1 m²)

Expand to show TLE details & history
Last TLE update: 22 hours ago

TLE from 22 hours ago
0 FENGYUN 1C DEB
1 30647U 99025APE 26105.82245653  .00004905  00000-0  10311-2 0  9990
2 30647  98.9947  52.8741 0027728 154.2008 276.7312 14.59843136997974
Epoch: 2026-04-15T19:44Z
TLE epoch observation values (Epoch: 2026-04-15T19:44:20.244Z)
Latitude
68.78647°
Longitude
-111.11893°
Altitude
703.294 km
Speed
7.512 km/s
True Right ascension
01h 55m 46s
True Declination
68° 40' 09"
Sunlit
Object was in daylight at epoch
Visualization orbit readout
Latitude
Unknown
Longitude
Unknown
Altitude
Unknown
Speed
Unknown
Apparent Right ascension
Unknown
Apparent Declination
Unknown
Sunlit
N/A
Visualization observer readout
Local Sidereal Time
00:47:13
Azimuth
Unknown
Elevation
Unknown
Doppler factor
Unknown
Orbital elements
Apogee altitude
710.401 km
Perigee altitude
671.199 km
Semi-major axis
7,068.937 km
Eccentricity
0.00277
Inclination
98.9947°
RAAN
52.8741°
Arg. of periapsis
154.2008°
True anomaly
276.41552°
Mean anomaly
276.7312°
Eccentric anomaly
276.57337°
Mean motion
3.65184 °/min
Orbital period
98.58 mins
BSTAR
0.0010311
Loading maneuver chart data...
Computing Atmospheric mass density...
Loading historical data...
Loading historical data...
Loading historical data...
Loading historical data...
Loading historical data...
Loading historical data...
Loading historical data...

Documentation

Showing up to 5 results
|